Regional Weather Roundup
Issued by NWS Little Rock, AR

Home | Current Version | Previous Version | Graphics & Text | Print | Product List | Glossary Off
Versions: 1 2 3 4 5 6 7 8 9 10 11 12 13 14 15 16 17 18 19 20 21 22 23 24 25 26 27 28 29 30 31 32

000
ASUS44 KLZK 231405
RWRLZK

WEATHER ROUNDUP FOR ARKANSAS
NATIONAL WEATHER SERVICE LITTLE ROCK AR
900 AM CDT SAT SEP 23 2017

NOTE: "FAIR" INDICATES FEW OR NO CLOUDS BELOW 12,000 FEET WITH NO
SIGNIFICANT WEATHER AND/OR OBSTRUCTIONS TO VISIBILITY.

ARZ001-003-010-029-231500-
NORTHWEST ARKANSAS

CITY           SKY/WX    TMP DP  RH WIND       PRES   REMARKS
FAYETTEVILLE   SUNNY     68  67  96 CALM      30.07R
FORT SMITH     SUNNY     75  70  84 E6        30.02R
HARRISON       SUNNY     75  67  76 CALM      30.08R
BENTONVILLE    SUNNY     75  68  78 SE3       30.08R
ROGERS         SUNNY     74  68  81 SE3       30.08R
SILOAM SPGS    SUNNY     74  68  81 E7        30.06R
HIGHFILL       SUNNY     74  69  85 CALM      30.07R
SPRINGDALE     SUNNY     73  68  83 E5        30.08R
$$

ARZ004-005-016-231500-
NORTH CENTRAL ARKANSAS

CITY           SKY/WX    TMP DP  RH WIND       PRES   REMARKS
BATESVILLE     SUNNY    N/A N/A N/A MISG        N/A
FLIPPIN        SUNNY     73  68  84 NE3       30.06R
MTN HOME       SUNNY     73  69  87 E6        30.05R
$$

ARZ040-041-231500-
WEST CENTRAL ARKANSAS

CITY           SKY/WX    TMP DP  RH WIND       PRES   REMARKS
MENA           SUNNY     73  72  94 CALM      30.05R
MOUNT IDA      SUNNY     72  66  81 CALM      30.01R
$$

ARZ009-017-025-026-028-231500-
NORTHEAST ARKANSAS

CITY           SKY/WX    TMP DP  RH WIND       PRES   REMARKS
JONESBORO      SUNNY     77  73  87 NE6       30.03R
NEWPORT        SUNNY     76  69  79 VRB3      30.04R
BLYTHEVILLE    SUNNY     78  72  81 E5        30.05R
$$

ARZ022-023-033-042-044-231500-
CENTRAL ARKANSAS

CITY           SKY/WX    TMP DP  RH WIND       PRES   REMARKS
LITTLE ROCK    SUNNY     77  73  87 NE3       30.01R
N LITTLE ROCK    N/A     81  72  75 CALM      30.02R HX  85
JACKSONVILLE   SUNNY     78  71  80 NE3       30.01R
CONWAY           N/A     75  72  88 CALM      30.00S
SEARCY         SUNNY     77  71  82 NE5       30.04R
HOT SPRINGS    SUNNY     75  70  84 CALM      30.02R
RUSSELLVILLE   SUNNY     74  69  85 CALM      30.02R
CLINTON        FAIR      70  68  94 CALM      30.04S FOG
$$

ARZ036-231500-
EAST ARKANSAS

CITY           SKY/WX    TMP DP  RH WIND       PRES   REMARKS
WEST MEMPHIS   SUNNY     79  73  82 CALM      30.02R
$$

ARZ050-053-066-070-073-231500-
SOUTHWEST ARKANSAS

CITY           SKY/WX    TMP DP  RH WIND       PRES   REMARKS
ARKADELPHIA    FAIR      76  70  82 NE3       30.00R
CAMDEN         SUNNY     77  70  78 CALM      29.99R
TEXARKANA      SUNNY     75  70  84 E5        29.99R
EL DORADO      SUNNY     77  71  82 CALM      29.99R
DE QUEEN       SUNNY     74  72  93 CALM      29.99R
$$

ARZ056-057-069-231500-
SOUTHEAST ARKANSAS

CITY           SKY/WX    TMP DP  RH WIND       PRES   REMARKS
PINE BLUFF     SUNNY     77  71  82 CALM      30.01R
STUTTGART      SUNNY     77  72  84 E5        30.02R
MONTICELLO     SUNNY     77  71  82 E5        30.00R

$$






USA.gov is the U.S. government's official web portal to all federal, state and local government web resources and services.